| time (UTC) | temp F | wind direction | speed MPH | gust MPH | rain 1hr in | rain 24hr in | rain mn in | humidity % | barometer mb |
| 20260506225640 | 43 | 317 | 1.0 | 6.0 | 0.00 | 1.46 | 1.46 | 97 | 1007.5 |
| 20260506224626 | 43 | 42 | 0.0 | 0.0 | 0.06 | 1.46 | 1.46 | 97 | 1007.4 |
| 20260506223642 | 43 | 0 | 0.0 | 1.0 | 0.16 | 1.46 | 1.46 | 97 | 1007.4 |
| 20260506222705 | 43 | 93 | 1.0 | 8.0 | 0.00 | 1.45 | 1.44 | 97 | 1007.2 |
| 20260506221646 | 43 | 101 | 0.0 | 2.0 | 0.04 | 1.43 | 1.43 | 97 | 1007.1 |
| 20260506220710 | 43 | 8 | 0.0 | 3.0 | 0.09 | 1.43 | 1.43 | 97 | 1006.9 |
| 20260506215646 | 43 | 13 | 0.0 | 2.0 | 0.00 | 1.43 | 1.42 | 97 | 1006.7 |
| 20260506214612 | 44 | 27 | 0.0 | 2.0 | 0.00 | 1.41 | 1.40 | 97 | 1006.5 |
| 20260506213602 | 44 | 36 | 1.0 | 8.0 | 0.04 | 1.41 | 1.40 | 97 | 1006.3 |
| 20260506205234 | 44 | 1 | 1.0 | 5.0 | 0.00 | 1.38 | 1.38 | 97 | 1006.2 |
| 20260506204251 | 44 | 56 | 0.0 | 1.0 | 0.00 | 1.38 | 1.37 | 97 | 1006.2 |
| 20260506201108 | 43 | 58 | 1.0 | 6.0 | 0.09 | 1.38 | 1.37 | 97 | 1006.1 |
| 20260506200131 | 43 | 136 | 1.0 | 0.0 | 0.05 | 1.37 | 1.36 | 97 | 1006.1 |
| 20260506195144 | 43 | 8 | 0.0 | 2.0 | 0.08 | 1.37 | 1.35 | 97 | 1006.3 |
| 20260506194125 | 43 | 69 | 2.0 | 6.0 | 0.09 | 1.37 | 1.34 | 97 | 1006.4 |
| 20260506193059 | 43 | 79 | 2.0 | 8.0 | 0.25 | 1.36 | 1.32 | 97 | 1006.3 |
| 20260506192034 | 43 | 34 | 1.0 | 8.0 | 0.25 | 1.34 | 1.29 | 97 | 1006.1 |
| 20260506191048 | 43 | 33 | 0.0 | 2.0 | 0.13 | 1.32 | 1.26 | 97 | 1006.2 |
| 20260506190049 | 43 | 2 | 0.0 | 4.0 | 0.24 | 1.31 | 1.25 | 97 | 1006.2 |
| 20260506185101 | 43 | 74 | 0.0 | 0.0 | 0.37 | 1.26 | 1.21 | 97 | 1006.3 |
| 20260506184122 | 44 | 79 | 0.0 | 0.0 | 0.36 | 1.22 | 1.17 | 97 | 1006.2 |
| 20260506183050 | 44 | 85 | 0.0 | 5.0 | 0.13 | 1.17 | 1.10 | 97 | 1005.9 |
| 20260506182109 | 44 | 302 | 0.0 | 7.0 | 0.18 | 1.13 | 1.08 | 96 | 1006.8 |
| 20260506181125 | 44 | 65 | 0.0 | 4.0 | 0.17 | 1.11 | 1.05 | 97 | 1005.8 |
| 20260506180109 | 44 | 247 | 0.0 | 0.0 | 0.23 | 1.06 | 1.02 | 97 | 1006.0 |
| 20260506175132 | 45 | 17 | 1.0 | 6.0 | 0.15 | 1.04 | 0.99 | 96 | 1005.8 |
| 20260506174143 | 45 | 37 | 0.0 | 3.0 | 0.27 | 1.03 | 0.97 | 97 | 1005.7 |
| 20260506173113 | 46 | 284 | 0.0 | 0.0 | 0.33 | 0.95 | 0.90 | 97 | 1006.0 |
| 20260506172116 | 45 | 124 | 1.0 | 4.0 | 0.16 | 0.91 | 0.86 | 97 | 1005.7 |
| 20260506171057 | 46 | 63 | 1.0 | 4.0 | 0.13 | 0.89 | 0.83 | 97 | 1006.0 |
| 20260506170023 | 46 | 31 | 0.0 | 1.0 | 0.17 | 0.86 | 0.81 | 97 | 1006.1 |
| 20260506163821 | 46 | 308 | 1.0 | 4.0 | 0.13 | 0.80 | 0.75 | 97 | 1006.3 |
| 20260506162805 | 46 | 312 | 0.0 | 1.0 | 0.13 | 0.78 | 0.73 | 97 | 1006.8 |
| 20260506160628 | 47 | 302 | 0.0 | 0.0 | 0.25 | 0.71 | 0.66 | 97 | 1006.5 |
| 20260506155620 | 47 | 30 | 0.0 | 2.0 | 0.26 | 0.68 | 0.63 | 97 | 1006.6 |
| 20260506154553 | 47 | 342 | 0.0 | 4.0 | 0.19 | 0.65 | 0.60 | 97 | 1006.7 |
| 20260506153520 | 47 | 18 | 0.0 | 4.0 | 0.20 | 0.61 | 0.55 | 96 | 1006.8 |
| 20260506152450 | 48 | 340 | 0.0 | 0.0 | 0.15 | 0.58 | 0.52 | 97 | 1006.7 |
| 20260506151502 | 47 | 23 | 0.0 | 0.0 | 0.19 | 0.55 | 0.49 | 97 | 1007.0 |
| 20260506150449 | 47 | 30 | 0.0 | 1.0 | 0.18 | 0.51 | 0.45 | 97 | 1007.0 |
| 20260506145500 | 47 | 41 | 0.0 | 2.0 | 0.15 | 0.48 | 0.42 | 97 | 1007.2 |
| 20260506144454 | 47 | 49 | 0.0 | 0.0 | 0.20 | 0.45 | 0.38 | 97 | 1007.4 |
| 20260506143427 | 47 | 51 | 0.0 | 0.0 | 0.23 | 0.41 | 0.36 | 96 | 1007.6 |
| 20260506142411 | 47 | 315 | 0.0 | 0.0 | 0.25 | 0.37 | 0.32 | 96 | 1007.6 |
| 20260506140309 | 48 | 305 | 0.0 | 0.0 | 0.17 | 0.30 | 0.25 | 96 | 1007.4 |
| 20260506135309 | 48 | 6 | 0.0 | 0.0 | 0.10 | 0.27 | 0.23 | 96 | 1007.3 |
| 20260506134330 | 49 | 2 | 0.0 | 1.0 | 0.10 | 0.25 | 0.21 | 96 | 1007.3 |
| 20260506133300 | 50 | 338 | 0.0 | 0.0 | 0.12 | 0.25 | 0.19 | 96 | 1007.3 |
| 20260506132311 | 51 | 6 | 0.0 | 0.0 | 0.17 | 0.22 | 0.17 | 97 | 1007.2 |
| 20260506131329 | 51 | 344 | 0.0 | 0.0 | 0.27 | 0.20 | 0.15 | 97 | 1007.4 |
| 20260506130255 | 51 | 301 | 0.0 | 0.0 | 0.08 | 0.18 | 0.12 | 97 | 1007.2 |
| 20260506125253 | 51 | 39 | 1.0 | 4.0 | 0.06 | 0.16 | 0.10 | 97 | 1007.5 |
| 20260506124309 | 51 | 51 | 0.0 | 4.0 | 0.18 | 0.15 | 0.09 | 97 | 1007.5 |
| 20260506123303 | 51 | 318 | 0.0 | 0.0 | 0.13 | 0.13 | 0.06 | 97 | 1007.8 |
| 20260506122300 | 51 | 65 | 0.0 | 0.0 | 0.08 | 0.10 | 0.05 | 97 | 1008.0 |
| 20260506121230 | 52 | 162 | 0.0 | 0.0 | 0.00 | 0.09 | 0.03 | 96 | 1007.6 |
| 20260506120219 | 52 | 58 | 0.0 | 0.0 | 0.00 | 0.09 | 0.03 | 96 | 1007.2 |
| 20260506115232 | 53 | 58 | 1.0 | 4.0 | 0.00 | 0.09 | 0.03 | 97 | 1007.0 |
| 20260506114229 | 53 | 12 | 0.0 | 0.0 | 0.00 | 0.09 | 0.03 | 97 | 1007.2 |
| 20260506113201 | 53 | 318 | 0.0 | 0.0 | 0.00 | 0.09 | 0.03 | 97 | 1007.4 |
| 20260506112145 | 54 | 288 | 0.0 | 2.0 | 0.00 | 0.09 | 0.03 | 97 | 1007.2 |
| 20260506111143 | 54 | 65 | 1.0 | 5.0 | 0.00 | 0.09 | 0.03 | 97 | 1006.9 |
| 20260506110111 | 55 | 223 | 0.0 | 1.0 | 0.00 | 0.09 | 0.03 | 97 | 1007.2 |
| 20260506105048 | 55 | 270 | 0.0 | 1.0 | 0.00 | 0.08 | 0.02 | 97 | 1007.4 |
| 20260506104016 | 55 | 304 | 0.0 | 0.0 | 0.00 | 0.08 | 0.02 | 97 | 1006.9 |
| 20260506102944 | 55 | 325 | 0.0 | 0.0 | 0.00 | 0.08 | 0.02 | 97 | 1007.0 |
| 20260506101959 | 55 | 325 | 0.0 | 0.0 | 0.00 | 0.08 | 0.02 | 97 | 1006.9 |
| 20260506094652 | 55 | 325 | 0.0 | 0.0 | 0.00 | 0.08 | 0.02 | 97 | 1006.7 |
| 20260506093714 | 55 | 325 | 0.0 | 0.0 | 0.00 | 0.08 | 0.02 | 97 | 1006.8 |
| 20260506092737 | 55 | 15 | 0.0 | 0.0 | 0.00 | 0.08 | 0.02 | 97 | 1006.5 |
| 20260506090631 | 55 | 58 | 0.0 | 0.0 | 0.00 | 0.08 | 0.02 | 97 | 1007.0 |
| 20260506084538 | 55 | 59 | 0.0 | 0.0 | 0.00 | 0.08 | 0.02 | 96 | 1007.1 |
| 20260506082503 | 55 | 277 | 0.0 | 0.0 | 0.00 | 0.08 | 0.02 | 96 | 1007.5 |
| 20260506080456 | 56 | 277 | 0.0 | 0.0 | 0.00 | 0.08 | 0.02 | 96 | 1007.4 |
| 20260506073421 | 56 | 278 | 0.0 | 0.0 | 0.00 | 0.08 | 0.02 | 96 | 1007.6 |
| 20260506072417 | 56 | 278 | 0.0 | 0.0 | 0.00 | 0.08 | 0.02 | 96 | 1007.6 |
| 20260506061902 | 57 | 278 | 0.0 | 0.0 | 0.00 | 0.08 | 0.02 | 95 | 1007.8 |
| 20260506060856 | 57 | 278 | 0.0 | 0.0 | 0.00 | 0.08 | 0.02 | 95 | 1007.7 |
| 20260506050909 | 58 | 69 | 0.0 | 0.0 | 0.00 | 0.08 | 0.02 | 93 | 1008.3 |
| 20260506044854 | 59 | 264 | 0.0 | 0.0 | 0.00 | 0.08 | 0.02 | 91 | 1008.5 |
| 20260506042753 | 60 | 266 | 0.0 | 0.0 | 0.04 | 0.08 | 0.02 | 88 | 1008.1 |
| 20260506041743 | 60 | 251 | 0.0 | 0.0 | 0.06 | 0.08 | 0.02 | 87 | 1008.1 |
| 20260506040800 | 61 | 234 | 0.0 | 0.0 | 0.00 | 0.06 | 0.01 | 86 | 1008.1 |
| 20260506034824 | 61 | 255 | 0.0 | 0.0 | 0.00 | 0.06 | 0.06 | 85 | 1007.8 |
| 20260506033812 | 60 | 242 | 0.0 | 0.0 | 0.00 | 0.06 | 0.06 | 88 | 1008.0 |
| 20260506031714 | 61 | 242 | 0.0 | 0.0 | 0.00 | 0.06 | 0.06 | 85 | 1007.6 |
| 20260506025607 | 62 | 237 | 0.0 | 0.0 | 0.00 | 0.06 | 0.06 | 80 | 1007.6 |
| 20260506023451 | 61 | 214 | 0.0 | 0.0 | 0.00 | 0.06 | 0.06 | 81 | 1007.5 |
| 20260506022421 | 61 | 214 | 0.0 | 0.0 | 0.00 | 0.06 | 0.06 | 82 | 1007.5 |
| 20260506021427 | 61 | 197 | 0.0 | 0.0 | 0.00 | 0.06 | 0.06 | 82 | 1007.4 |
| 20260506015236 | 62 | 357 | 0.0 | 0.0 | 0.00 | 0.06 | 0.06 | 80 | 1007.1 |
| 20260506014300 | 62 | 358 | 0.0 | 0.0 | 0.00 | 0.06 | 0.06 | 79 | 1007.0 |
| 20260506013254 | 62 | 243 | 0.0 | 0.0 | 0.00 | 0.06 | 0.06 | 78 | 1006.9 |
| 20260506011159 | 62 | 206 | 0.0 | 2.0 | 0.00 | 0.06 | 0.06 | 80 | 1006.9 |
| 20260506010210 | 60 | 191 | 0.0 | 0.0 | 0.00 | 0.06 | 0.06 | 82 | 1006.6 |
| 20260506004045 | 60 | 210 | 0.0 | 0.0 | 0.00 | 0.06 | 0.06 | 81 | 1006.0 |
| 20260506001939 | 62 | 210 | 0.0 | 0.0 | 0.00 | 0.06 | 0.06 | 78 | 1005.8 |
| 20260506000011 | 63 | 203 | 0.0 | 0.0 | 0.00 | 0.06 | 0.06 | 77 | 1005.8 |
| 20260505233909 | 62 | 165 | 0.0 | 0.0 | 0.00 | 0.06 | 0.06 | 80 | 1005.8 |
| 20260505232854 | 62 | 95 | 0.0 | 3.0 | 0.00 | 0.06 | 0.06 | 81 | 1005.8 |
| 20260505231902 | 63 | 88 | 0.0 | 0.0 | 0.00 | 0.06 | 0.06 | 79 | 1005.6 |